datetime,flow volume
1927-01-01,1418.18182
1927-01-02,1382.47934
1927-01-03,1418.18182
1927-01-04,1578.84298
1927-01-05,1636.36364
1927-01-06,1715.70248
1927-01-07,1656.19835
1927-01-08,1578.84298
1927-01-09,1543.1405
1927-01-10,1616.52893
1927-01-11,1616.52893
1927-01-12,1656.19835
1927-01-13,1489.58678
1927-01-14,1418.18182
1927-01-15,1239.66942
1927-01-16,1239.66942
1927-01-17,1239.66942
1927-01-18,1239.66942
1927-01-19,1207.93388
1927-01-20,1257.52066
1927-01-21,1275.3719
1927-01-22,1311.07438
1927-01-23,1275.3719
1927-01-24,1257.52066
1927-01-25,1275.3719
1927-01-26,1239.66942
1927-01-27,1275.3719
1927-01-28,1293.22314
1927-01-29,1275.3719
1927-01-30,1346.77686
1927-01-31,1364.6281
1927-02-01,1400.33058
1927-02-02,1507.43802
1927-02-03,1364.6281
1927-02-04,1382.47934
1927-02-05,1489.58678
1927-02-06,1489.58678
1927-02-07,1489.58678
1927-02-08,1560.99174
1927-02-09,1656.19835
1927-02-10,1525.28926
1927-02-11,1656.19835
1927-02-12,1735.53719
1927-02-13,1775.20661
1927-02-14,1775.20661
1927-02-15,1795.04132
1927-02-16,1894.21488
1927-02-17,1800.99174
1927-02-18,1709.75207
1927-02-19,1616.52893
1927-02-20,1676.03306
1927-02-21,1489.58678
1927-02-22,1795.04132
1927-02-23,1894.21488
1927-02-24,1914.04959
1927-02-25,1933.8843
1927-02-26,2062.80992
1927-02-27,2300.82645
1927-02-28,2261.15702
1927-03-01,2142.14876
1927-03-02,1953.71901
1927-03-03,1933.8843
1927-03-04,1953.71901
1927-03-05,2102.47934
1927-03-06,2142.14876
1927-03-07,2082.64463
1927-03-08,2062.80992
1927-03-09,2062.80992
1927-03-10,2280.99174
1927-03-11,2578.5124
1927-03-12,2598.34711
1927-03-13,2638.01653
1927-03-14,2360.33058
1927-03-15,2380.16529
1927-03-16,2419.83471
1927-03-17,2400.0
1927-03-18,2300.82645
1927-03-19,2042.97521
1927-03-20,2062.80992
1927-03-21,2280.99174
1927-03-22,2300.82645
1927-03-23,2181.81818
1927-03-24,2102.47934
1927-03-25,2062.80992
1927-03-26,2261.15702
1927-03-27,2776.8595
1927-03-28,2955.3719
1927-03-29,2995.04132
1927-03-30,3986.77686
1927-03-31,4224.79339
1927-04-01,6069.42149
1927-04-02,3907.43802
1927-04-03,4641.32231
1927-04-04,6783.47107
1927-04-05,9421.4876
1927-04-06,8985.12397
1927-04-07,8171.90083
1927-04-08,8171.90083
1927-04-09,7576.8595
1927-04-10,6228.09917
1927-04-11,6228.09917
1927-04-12,6128.92562
1927-04-13,5256.19835
1927-04-14,4819.83471
1927-04-15,4204.95868
1927-04-16,3609.91736
1927-04-17,3451.23967
1927-04-18,3391.73554
1927-04-19,3490.90909
1927-04-20,3490.90909
1927-04-21,3768.59504
1927-04-22,3947.10744
1927-04-23,4919.00826
1927-04-24,6347.10744
1927-04-25,8786.77686
1927-04-26,10056.1984
1927-04-27,11365.2893
1927-04-28,11028.0992
1927-04-29,10671.0744
1927-04-30,12793.3884
1927-05-01,14439.6694
1927-05-02,15927.2727
1927-05-03,17077.686
1927-05-04,18604.9587
1927-05-05,19715.7025
1927-05-06,20628.0992
1927-05-07,19200.0
1927-05-08,18922.3141
1927-05-09,16442.9752
1927-05-10,13527.2727
1927-05-11,11147.1074
1927-05-12,9877.68595
1927-05-13,9084.29752
1927-05-14,10175.2066
1927-05-15,12119.0083
1927-05-16,14400.0
1927-05-17,16542.1488
1927-05-18,18366.9422
1927-05-19,19160.3306
1927-05-20,19596.6942
1927-05-21,18664.4628
1927-05-22,18208.2645
1927-05-23,16542.1488
1927-05-24,14538.843
1927-05-25,12515.7025
1927-05-26,12019.8347
1927-05-27,11504.1322
1927-05-28,11325.6198
1927-05-29,10512.3967
1927-05-30,9957.02479
1927-05-31,9084.29752
1927-06-01,8608.26446
1927-06-02,7438.01653
1927-06-03,6922.31405
1927-06-04,6604.95868
1927-06-05,6525.61983
1927-06-06,6267.7686
1927-06-07,6089.2562
1927-06-08,5990.08264
1927-06-09,6188.42975
1927-06-10,6267.7686
1927-06-11,8687.60331
1927-06-12,9004.95868
1927-06-13,9302.47934
1927-06-14,9600.0
1927-06-15,9917.35537
1927-06-16,10234.7107
1927-06-17,10532.2314
1927-06-18,10849.5868
1927-06-19,10750.4132
1927-06-20,10512.3967
1927-06-21,9917.35537
1927-06-22,9798.34711
1927-06-23,9163.63636
1927-06-24,8885.95041
1927-06-25,8608.26446
1927-06-26,8528.92562
1927-06-27,7140.49587
1927-06-28,6704.13223
1927-06-29,6882.64463
1927-06-30,8846.28099
1927-07-01,13487.6033
1927-07-02,16006.6116
1927-07-03,19358.6777
1927-07-04,22809.9174
1927-07-05,17732.2314
1927-07-06,14102.4793
1927-07-07,11365.2893
1927-07-08,10056.1984
1927-07-09,9421.4876
1927-07-10,9738.84298
1927-07-11,7933.8843
1927-07-12,5950.41322
1927-07-13,4363.63636
1927-07-14,3768.59504
1927-07-15,3728.92562
1927-07-16,3649.58678
1927-07-17,3689.2562
1927-07-18,3054.54545
1927-07-19,2439.66942
1927-07-20,2023.1405
1927-07-21,1814.87603
1927-07-22,1814.87603
1927-07-23,2102.47934
1927-07-24,1614.54545
1927-07-25,4244.6281
1927-07-26,2380.16529
1927-07-27,2380.16529
1927-07-28,3173.55372
1927-07-29,2380.16529
1927-07-30,2181.81818
1927-07-31,1785.12397
1927-08-01,1388.42975
1927-08-02,1289.2562
1927-08-03,1289.2562
1927-08-04,1289.2562
1927-08-05,1685.95041
1927-08-06,1763.30579
1927-08-07,1614.54545
1927-08-08,1543.1405
1927-08-09,2320.66116
1927-08-10,3133.8843
1927-08-11,2638.01653
1927-08-12,2003.30579
1927-08-13,1614.54545
1927-08-14,1360.66116
1927-08-15,1404.29752
1927-08-16,1543.1405
1927-08-17,1338.84298
1927-08-18,1338.84298
1927-08-19,1543.1405
1927-08-20,1685.95041
1927-08-21,2221.4876
1927-08-22,1789.09091
1927-08-23,4125.61983
1927-08-24,2776.8595
1927-08-25,2181.81818
1927-08-26,2380.16529
1927-08-27,2082.64463
1927-08-28,1918.01653
1927-08-29,1973.55372
1927-08-30,1894.21488
1927-08-31,1973.55372
1927-09-01,2261.15702
1927-09-02,2459.50413
1927-09-03,2618.18182
1927-09-04,2975.20661
1927-09-05,3213.22314
1927-09-06,3391.73554
1927-09-07,3689.2562
1927-09-08,4879.33884
1927-09-09,5057.85124
1927-09-10,5930.57851
1927-09-11,5970.24793
1927-09-12,6664.46281
1927-09-13,11325.6198
1927-09-14,12119.0083
1927-09-15,10552.0661
1927-09-16,13348.7603
1927-09-17,12198.3471
1927-09-18,12297.5207
1927-09-19,9461.15702
1927-09-20,8251.23967
1927-09-21,7219.83471
1927-09-22,6485.95041
1927-09-23,6089.2562
1927-09-24,6069.42149
1927-09-25,6267.7686
1927-09-26,6188.42975
1927-09-27,7001.65289
1927-09-28,6823.1405
1927-09-29,6664.46281
1927-09-30,6208.26446
1927-10-01,5752.06612
1927-10-02,6386.77686
1927-10-03,6485.95041
1927-10-04,6406.61157
1927-10-05,6307.43802
1927-10-06,5831.40496
1927-10-07,5831.40496
1927-10-08,5752.06612
1927-10-09,5732.2314
1927-10-10,5355.3719
1927-10-11,5097.52066
1927-10-12,4780.16529
1927-10-13,4363.63636
1927-10-14,4462.80992
1927-10-15,4343.80165
1927-10-16,4125.61983
1927-10-17,3768.59504
1927-10-18,3887.60331
1927-10-19,3689.2562
1927-10-20,3490.90909
1927-10-21,3371.90083
1927-10-22,3292.56198
1927-10-23,3193.38843
1927-10-24,3094.21488
1927-10-25,3054.54545
1927-10-26,3014.87603
1927-10-27,2995.04132
1927-10-28,2975.20661
1927-10-29,3054.54545
1927-10-30,3570.24793
1927-10-31,3233.05785
1927-11-01,3411.57025
1927-11-02,3292.56198
1927-11-03,3292.56198
1927-11-04,2955.3719
1927-11-05,2618.18182
1927-11-06,2618.18182
1927-11-07,2618.18182
1927-11-08,2697.52066
1927-11-09,2935.53719
1927-11-10,3054.54545
1927-11-11,3054.54545
1927-11-12,3054.54545
1927-11-13,3014.87603
1927-11-14,3054.54545
1927-11-15,2955.3719
1927-11-16,2895.86777
1927-11-17,2876.03306
1927-11-18,2895.86777
1927-11-19,2657.85124
1927-11-20,2519.00826
1927-11-21,2598.34711
1927-11-22,2638.01653
1927-11-23,2598.34711
1927-11-24,2400.0
1927-11-25,2380.16529
1927-11-26,2340.49587
1927-11-27,2241.32231
1927-11-28,2340.49587
1927-11-29,2479.33884
1927-11-30,2280.99174
1927-12-01,2280.99174
1927-12-02,2181.81818
1927-12-03,2102.47934
1927-12-04,2062.80992
1927-12-05,2380.16529
1927-12-06,2082.64463
1927-12-07,1906.1157
1927-12-08,1731.57025
1927-12-09,1557.02479
1927-12-10,1382.47934
1927-12-11,1436.03306
1927-12-12,1914.04959
1927-12-13,2340.49587
1927-12-14,2459.50413
1927-12-15,2360.33058
1927-12-16,2082.64463
1927-12-17,1814.87603
1927-12-18,1828.76033
1927-12-19,1842.64463
1927-12-20,1856.52893
1927-12-21,1872.39669
1927-12-22,1886.28099
1927-12-23,1900.16529
1927-12-24,1914.04959
1927-12-25,1973.55372
1927-12-26,2023.1405
1927-12-27,2102.47934
1927-12-28,2142.14876
1927-12-29,2221.4876
1927-12-30,2261.15702
1927-12-31,2340.49587
1928-01-01,1660.16529
1928-01-02,1660.16529
1928-01-03,1660.16529
1928-01-04,1660.16529
1928-01-05,1660.16529
1928-01-06,1660.16529
1928-01-07,1943.80165
1928-01-08,1921.98347
1928-01-09,1921.98347
1928-01-10,1921.98347
1928-01-11,1921.98347
1928-01-12,1945.78512
1928-01-13,1945.78512
1928-01-14,1945.78512
1928-01-15,1945.78512
1928-01-16,2023.1405
1928-01-17,2042.97521
1928-01-18,1943.80165
1928-01-19,1765.28926
1928-01-20,1547.10744
1928-01-21,1428.09917
1928-01-22,1408.26446
1928-01-23,1590.7438
1928-01-24,1568.92562
1928-01-25,1447.93388
1928-01-26,1467.7686
1928-01-27,1467.7686
1928-01-28,1368.59504
1928-01-29,1566.94215
1928-01-30,1745.45455
1928-01-31,1745.45455
1928-02-01,1765.28926
1928-02-02,1787.10744
1928-02-03,1898.18182
1928-02-04,1921.98347
1928-02-05,1945.78512
1928-02-06,2042.97521
1928-02-07,2201.65289
1928-02-08,2221.4876
1928-02-09,2122.31405
1928-02-10,2102.47934
1928-02-11,1921.98347
1928-02-12,1787.10744
1928-02-13,1808.92562
1928-02-14,1969.58678
1928-02-15,1808.92562
1928-02-16,1699.83471
1928-02-17,1765.28926
1928-02-18,1765.28926
1928-02-19,1678.01653
1928-02-20,1656.19835
1928-02-21,1743.47107
1928-02-22,1808.92562
1928-02-23,1808.92562
1928-02-24,1634.38017
1928-02-25,1745.45455
1928-02-26,1765.28926
1928-02-27,1676.03306
1928-02-28,1765.28926
1928-02-29,1830.7438
1928-03-01,2023.1405
1928-03-02,2181.81818
1928-03-03,2261.15702
1928-03-04,2499.17355
1928-03-05,2697.52066
1928-03-06,3153.71901
1928-03-07,2975.20661
1928-03-08,2856.19835
1928-03-09,3014.87603
1928-03-10,3153.71901
1928-03-11,3312.39669
1928-03-12,2935.53719
1928-03-13,2578.5124
1928-03-14,2895.86777
1928-03-15,3133.8843
1928-03-16,2677.68595
1928-03-17,2737.19008
1928-03-18,2499.17355
1928-03-19,2538.84298
1928-03-20,2657.85124
1928-03-21,2499.17355
1928-03-22,2697.52066
1928-03-23,3252.89256
1928-03-24,3312.39669
1928-03-25,3867.7686
1928-03-26,3907.43802
1928-03-27,4026.44628
1928-03-28,4145.45455
1928-03-29,4423.1405
1928-03-30,4462.80992
1928-03-31,4066.1157
1928-04-01,3986.77686
1928-04-02,3490.90909
1928-04-03,3709.09091
1928-04-04,3828.09917
1928-04-05,3867.7686
1928-04-06,3530.57851
1928-04-07,3213.22314
1928-04-08,3054.54545
1928-04-09,2895.86777
1928-04-10,2737.19008
1928-04-11,2578.5124
1928-04-12,2419.83471
1928-04-13,2261.15702
1928-04-14,2142.14876
1928-04-15,2062.80992
1928-04-16,2261.15702
1928-04-17,2400.0
1928-04-18,2737.19008
1928-04-19,2697.52066
1928-04-20,2856.19835
1928-04-21,3133.8843
1928-04-22,2995.04132
1928-04-23,2935.53719
1928-04-24,3153.71901
1928-04-25,3153.71901
1928-04-26,3451.23967
1928-04-27,3490.90909
1928-04-28,4661.15702
1928-04-29,6009.91736
1928-04-30,7061.15702
1928-05-01,10611.5703
1928-05-02,11861.157
1928-05-03,14895.8678
1928-05-04,14598.3471
1928-05-05,10968.595
1928-05-06,10433.0579
1928-05-07,11801.6529
1928-05-08,12277.686
1928-05-09,12694.2149
1928-05-10,13527.2727
1928-05-11,13646.281
1928-05-12,13527.2727
1928-05-13,12099.1736
1928-05-14,11682.6446
1928-05-15,10433.0579
1928-05-16,9560.33058
1928-05-17,9322.31405
1928-05-18,9104.13223
1928-05-19,8945.45455
1928-05-20,8588.42975
1928-05-21,9064.46281
1928-05-22,8548.76033
1928-05-23,8548.76033
1928-05-24,8509.09091
1928-05-25,8191.73554
1928-05-26,10195.0413
1928-05-27,11008.2645
1928-05-28,11781.8182
1928-05-29,12158.6777
1928-05-30,12515.7025
1928-05-31,12753.719
1928-06-01,13428.0992
1928-06-02,13527.2727
1928-06-03,13705.7851
1928-06-04,13428.0992
1928-06-05,12039.6694
1928-06-06,10195.0413
1928-06-07,8390.08264
1928-06-08,7219.83471
1928-06-09,6148.76033
1928-06-10,5831.40496
1928-06-11,5533.8843
1928-06-12,5315.70248
1928-06-13,4462.80992
1928-06-14,3947.10744
1928-06-15,3312.39669
1928-06-16,2697.52066
1928-06-17,2320.66116
1928-06-18,2122.31405
1928-06-19,1921.98347
1928-06-20,1921.98347
1928-06-21,1743.47107
1928-06-22,1568.92562
1928-06-23,1428.09917
1928-06-24,1291.23967
1928-06-25,1291.23967
1928-06-26,1146.44628
1928-06-27,963.96694
1928-06-28,813.22314
1928-06-29,769.58678
1928-06-30,634.71074
1928-07-01,561.32231
1928-07-02,501.81818
1928-07-03,436.36364
1928-07-04,436.36364
1928-07-05,386.77686
1928-07-06,303.47107
1928-07-07,285.61983
1928-07-08,313.38843
1928-07-09,321.32231
1928-07-10,331.23967
1928-07-11,285.61983
1928-07-12,259.83471
1928-07-13,259.83471
1928-07-14,259.83471
1928-07-15,285.61983
1928-07-16,277.68595
1928-07-17,269.75207
1928-07-18,406.61157
1928-07-19,468.09917
1928-07-20,416.52893
1928-07-21,549.42149
1928-07-22,769.58678
1928-07-23,902.47934
1928-07-24,1271.40496
1928-07-25,1027.43802
1928-07-26,1011.57025
1928-07-27,856.8595
1928-07-28,979.83471
1928-07-29,1408.26446
1928-07-30,1507.43802
1928-07-31,1678.01653
1928-08-01,1190.08264
1928-08-02,991.73554
1928-08-03,1983.47107
1928-08-04,9917.35537
1928-08-05,1586.77686
1928-08-06,991.73554
1928-08-07,694.21488
1928-08-08,595.04132
1928-08-09,595.04132
1928-08-10,694.21488
1928-08-11,694.21488
1928-08-12,793.38843
1928-08-13,1190.08264
1928-08-14,1388.42975
1928-08-15,1388.42975
1928-08-16,1388.42975
1928-08-17,1447.93388
1928-08-18,1027.43802
1928-08-19,755.70248
1928-08-20,634.71074
1928-08-21,561.32231
1928-08-22,793.38843
1928-08-23,1190.08264
1928-08-24,1388.42975
1928-08-25,1190.08264
1928-08-26,1388.42975
1928-08-27,1229.75207
1928-08-28,1388.42975
1928-08-29,1388.42975
1928-08-30,1388.42975
1928-08-31,1388.42975
1928-09-01,1467.7686
1928-09-02,1110.7438
1928-09-03,918.34711
1928-09-04,755.70248
1928-09-05,608.92562
1928-09-06,872.72727
1928-09-07,573.22314
1928-09-08,608.92562
1928-09-09,634.71074
1928-09-10,573.22314
1928-09-11,396.69421
1928-09-12,331.23967
1928-09-13,376.8595
1928-09-14,313.38843
1928-09-15,321.32231
1928-09-16,366.94215
1928-09-17,359.00826
1928-09-18,396.69421
1928-09-19,436.36364
1928-09-20,406.61157
1928-09-21,386.77686
1928-09-22,396.69421
1928-09-23,406.61157
1928-09-24,406.61157
1928-09-25,446.28099
1928-09-26,436.36364
1928-09-27,436.36364
1928-09-28,458.18182
1928-09-29,426.44628
1928-09-30,386.77686
1928-10-01,376.8595
1928-10-02,501.81818
1928-10-03,458.18182
1928-10-04,458.18182
1928-10-05,480.0
1928-10-06,489.91736
1928-10-07,480.0
1928-10-08,480.0
1928-10-09,537.52066
1928-10-10,525.61983
1928-10-11,620.82645
1928-10-12,672.39669
1928-10-13,700.16529
1928-10-14,727.93388
1928-10-15,842.97521
1928-10-16,755.70248
1928-10-17,827.10744
1928-10-18,842.97521
1928-10-19,872.72727
1928-10-20,769.58678
1928-10-21,827.10744
1928-10-22,842.97521
1928-10-23,856.8595
1928-10-24,813.22314
1928-10-25,783.47107
1928-10-26,799.33884
1928-10-27,769.58678
1928-10-28,813.22314
1928-10-29,799.33884
1928-10-30,783.47107
1928-10-31,827.10744
1928-11-01,872.72727
1928-11-02,932.2314
1928-11-03,902.47934
1928-11-04,918.34711
1928-11-05,902.47934
1928-11-06,948.09917
1928-11-07,963.96694
1928-11-08,948.09917
1928-11-09,902.47934
1928-11-10,886.61157
1928-11-11,902.47934
1928-11-12,948.09917
1928-11-13,963.96694
1928-11-14,1043.30579
1928-11-15,1128.59504
1928-11-16,1291.23967
1928-11-17,1348.76033
1928-11-18,1368.59504
1928-11-19,1388.42975
1928-11-20,1328.92562
1928-11-21,1328.92562
1928-11-22,1328.92562
1928-11-23,1128.59504
1928-11-24,1253.55372
1928-11-25,1467.7686
1928-11-26,1568.92562
1928-11-27,1634.38017
1928-11-28,1678.01653
1928-11-29,1634.38017
1928-11-30,1388.42975
1928-12-01,1128.59504
1928-12-02,1021.4876
1928-12-03,918.34711
1928-12-04,1077.02479
1928-12-05,1146.44628
1928-12-06,1200.0
1928-12-07,1194.04959
1928-12-08,1188.09917
1928-12-09,1182.14876
1928-12-10,1235.70248
1928-12-11,1235.70248
1928-12-12,1235.70248
1928-12-13,1368.59504
1928-12-14,1291.23967
1928-12-15,1182.14876
1928-12-16,1182.14876
1928-12-17,1128.59504
1928-12-18,979.83471
1928-12-19,963.96694
1928-12-20,948.09917
1928-12-21,1011.57025
1928-12-22,1003.63636
1928-12-23,995.70248
1928-12-24,995.70248
1928-12-25,995.70248
1928-12-26,1011.57025
1928-12-27,1146.44628
1928-12-28,1130.57851
1928-12-29,1130.57851
1928-12-30,1130.57851
1928-12-31,1130.57851
1929-01-01,
1929-01-02,
1929-01-03,
1929-01-04,
1929-01-05,
1929-01-06,
1929-01-07,
1929-01-08,
1929-01-09,
1929-01-10,
1929-01-11,
1929-01-12,
1929-01-13,
1929-01-14,
1929-01-15,
1929-01-16,
1929-01-17,
1929-01-18,
1929-01-19,
1929-01-20,
1929-01-21,
1929-01-22,
1929-01-23,
1929-01-24,
1929-01-25,
1929-01-26,
1929-01-27,
1929-01-28,
1929-01-29,
1929-01-30,
1929-01-31,
1929-02-01,
1929-02-02,
1929-02-03,
1929-02-04,
1929-02-05,
1929-02-06,
1929-02-07,
1929-02-08,
1929-02-09,
1929-02-10,
1929-02-11,
1929-02-12,
1929-02-13,
1929-02-14,
1929-02-15,
1929-02-16,
1929-02-17,
1929-02-18,
1929-02-19,
1929-02-20,
1929-02-21,
1929-02-22,
1929-02-23,
1929-02-24,
1929-02-25,
1929-02-26,
1929-02-27,
1929-02-28,
1929-03-01,1309.09091
1929-03-02,1332.89256
1929-03-03,1263.47107
1929-03-04,1178.18182
1929-03-05,1138.5124
1929-03-06,1263.47107
1929-03-07,1497.52066
1929-03-08,1832.72727
1929-03-09,2340.49587
1929-03-10,2280.99174
1929-03-11,2380.16529
1929-03-12,2578.5124
1929-03-13,1918.01653
1929-03-14,1497.52066
1929-03-15,1628.42975
1929-03-16,1602.64463
1929-03-17,1602.64463
1929-03-18,1628.42975
1929-03-19,1737.52066
1929-03-20,1707.7686
1929-03-21,1551.07438
1929-03-22,1797.02479
1929-03-23,2142.14876
1929-03-24,1525.28926
1929-03-25,1602.64463
1929-03-26,1287.27273
1929-03-27,1576.8595
1929-03-28,2221.4876
1929-03-29,2380.16529
1929-03-30,3252.89256
1929-03-31,3034.71074
1929-04-01,
1929-04-02,
1929-04-03,
1929-04-04,
1929-04-05,
1929-04-06,
1929-04-07,
1929-04-08,
1929-04-09,
1929-04-10,
1929-04-11,
1929-04-12,
1929-04-13,
1929-04-14,
1929-04-15,
1929-04-16,
1929-04-17,
1929-04-18,
1929-04-19,
1929-04-20,
1929-04-21,
1929-04-22,
1929-04-23,
1929-04-24,
1929-04-25,
1929-04-26,
1929-04-27,
1929-04-28,
1929-04-29,
1929-04-30,
1929-05-01,4423.1405
1929-05-02,4482.64463
1929-05-03,3570.24793
1929-05-04,4323.96694
1929-05-05,5454.54545
1929-05-06,7180.16529
1929-05-07,8290.90909
1929-05-08,9480.99174
1929-05-09,11028.0992
1929-05-10,11781.8182
1929-05-11,12991.7355
1929-05-12,13150.4132
1929-05-13,9123.96694
1929-05-14,7795.04132
1929-05-15,7398.34711
1929-05-16,8350.41322
1929-05-17,10809.9174
1929-05-18,12614.876
1929-05-19,12674.3802
1929-05-20,10809.9174
1929-05-21,15094.2149
1929-05-22,20826.4463
1929-05-23,17573.5537
1929-05-24,16998.3471
1929-05-25,16442.9752
1929-05-26,15014.876
1929-05-27,14776.8595
1929-05-28,14380.1653
1929-05-29,12000.0
1929-05-30,11325.6198
1929-05-31,10314.0496
1929-06-01,
1929-06-02,
1929-06-03,
1929-06-04,
1929-06-05,
1929-06-06,
1929-06-07,
1929-06-08,
1929-06-09,
1929-06-10,
1929-06-11,
1929-06-12,
1929-06-13,
1929-06-14,
1929-06-15,
1929-06-16,
1929-06-17,
1929-06-18,
1929-06-19,
1929-06-20,
1929-06-21,
1929-06-22,
1929-06-23,
1929-06-24,
1929-06-25,
1929-06-26,
1929-06-27,
1929-06-28,
1929-06-29,
1929-06-30,
1929-07-01,2578.5124
1929-07-02,2241.32231
1929-07-03,1602.64463
1929-07-04,1576.8595
1929-07-05,1576.8595
1929-07-06,1378.5124
1929-07-07,1098.84298
1929-07-08,1079.00826
1929-07-09,1118.67769
1929-07-10,1525.28926
1929-07-11,1576.8595
1929-07-12,1656.19835
1929-07-13,1767.27273
1929-07-14,1947.7686
1929-07-15,1497.52066
1929-07-16,1217.85124
1929-07-17,1138.5124
1929-07-18,1287.27273
1929-07-19,1656.19835
1929-07-20,3153.71901
1929-07-21,3510.7438
1929-07-22,2935.53719
1929-07-23,3570.24793
1929-07-24,4046.28099
1929-07-25,2737.19008
1929-07-26,2578.5124
1929-07-27,2340.49587
1929-07-28,2419.83471
1929-07-29,2895.86777
1929-07-30,2221.4876
1929-07-31,2320.66116
1929-08-01,1826.77686
1929-08-02,2102.47934
1929-08-03,2280.99174
1929-08-04,1602.64463
1929-08-05,2856.19835
1929-08-06,3114.04959
1929-08-07,4998.34711
1929-08-08,9401.65289
1929-08-09,5652.89256
1929-08-10,6604.95868
1929-08-11,11484.2975
1929-08-12,18961.9835
1929-08-13,9044.6281
1929-08-14,9738.84298
1929-08-15,9738.84298
1929-08-16,8429.75207
1929-08-17,7656.19835
1929-08-18,6347.10744
1929-08-19,5831.40496
1929-08-20,5216.52893
1929-08-21,3907.43802
1929-08-22,3114.04959
1929-08-23,2380.16529
1929-08-24,2578.5124
1929-08-25,2856.19835
1929-08-26,3153.71901
1929-08-27,2538.84298
1929-08-28,2241.32231
1929-08-29,2618.18182
1929-08-30,6148.76033
1929-08-31,4423.1405
1929-09-01,
1929-09-02,
1929-09-03,
1929-09-04,
1929-09-05,
1929-09-06,
1929-09-07,
1929-09-08,
1929-09-09,
1929-09-10,
1929-09-11,
1929-09-12,
1929-09-13,
1929-09-14,
1929-09-15,
1929-09-16,
1929-09-17,
1929-09-18,
1929-09-19,
1929-09-20,
1929-09-21,
1929-09-22,
1929-09-23,
1929-09-24,
1929-09-25,
1929-09-26,
1929-09-27,
1929-09-28,
1929-09-29,
1929-09-30,
1929-10-01,
1929-10-02,
1929-10-03,
1929-10-04,
1929-10-05,
1929-10-06,
1929-10-07,
1929-10-08,
1929-10-09,
1929-10-10,
1929-10-11,
1929-10-12,
1929-10-13,
1929-10-14,
1929-10-15,
1929-10-16,
1929-10-17,
1929-10-18,
1929-10-19,
1929-10-20,
1929-10-21,
1929-10-22,
1929-10-23,
1929-10-24,
1929-10-25,
1929-10-26,
1929-10-27,
1929-10-28,
1929-10-29,
1929-10-30,
1929-10-31,
1929-11-01,2578.5124
1929-11-02,2459.50413
1929-11-03,2380.16529
1929-11-04,2776.8595
1929-11-05,3252.89256
1929-11-06,3371.90083
1929-11-07,3847.93388
1929-11-08,4046.28099
1929-11-09,4165.28926
1929-11-10,3808.26446
1929-11-11,3649.58678
1929-11-12,3193.38843
1929-11-13,2578.5124
1929-11-14,2082.64463
1929-11-15,1797.02479
1929-11-16,1826.77686
1929-11-17,2082.64463
1929-11-18,2380.16529
1929-11-19,2975.20661
1929-11-20,3252.89256
1929-11-21,3371.90083
1929-11-22,2935.53719
1929-11-23,2737.19008
1929-11-24,2578.5124
1929-11-25,2280.99174
1929-11-26,1947.7686
1929-11-27,2181.81818
1929-11-28,2419.83471
1929-11-29,2737.19008
1929-11-30,3034.71074
1929-12-01,2856.19835
1929-12-02,3074.38017
1929-12-03,3371.90083
1929-12-04,3074.38017
1929-12-05,2578.5124
1929-12-06,2459.50413
1929-12-07,2578.5124
1929-12-08,2538.84298
1929-12-09,2419.83471
1929-12-10,2280.99174
1929-12-11,2320.66116
1929-12-12,2320.66116
1929-12-13,2181.81818
1929-12-14,2102.47934
1929-12-15,2221.4876
1929-12-16,2241.32231
1929-12-17,2102.47934
1929-12-18,2181.81818
1929-12-19,1918.01653
1929-12-20,1797.02479
1929-12-21,1497.52066
1929-12-22,1178.18182
1929-12-23,1241.65289
1929-12-24,1098.84298
1929-12-25,1332.89256
1929-12-26,1445.95041
1929-12-27,1628.42975
1929-12-28,1551.07438
1929-12-29,1378.5124
1929-12-30,1551.07438
1929-12-31,1681.98347
1930-01-01,1709.75207
1930-01-02,1727.60331
1930-01-03,1691.90083
1930-01-04,1656.19835
1930-01-05,1535.20661
1930-01-06,1602.64463
1930-01-07,1602.64463
1930-01-08,1566.94215
1930-01-09,1519.33884
1930-01-10,1408.26446
1930-01-11,1471.73554
1930-01-12,1674.04959
1930-01-13,1638.34711
1930-01-14,1765.28926
1930-01-15,1709.75207
1930-01-16,1709.75207
1930-01-17,1804.95868
1930-01-18,1824.79339
1930-01-19,1844.6281
1930-01-20,1943.80165
1930-01-21,2102.47934
1930-01-22,1824.79339
1930-01-23,1824.79339
1930-01-24,1864.46281
1930-01-25,1923.96694
1930-01-26,1943.80165
1930-01-27,1864.46281
1930-01-28,1785.12397
1930-01-29,1705.78512
1930-01-30,1646.28099
1930-01-31,1566.94215
1930-02-01,1487.60331
1930-02-02,1584.79339
1930-02-03,1566.94215
1930-02-04,1620.49587
1930-02-05,1602.64463
1930-02-06,1620.49587
1930-02-07,1638.34711
1930-02-08,1620.49587
1930-02-09,1745.45455
1930-02-10,1765.28926
1930-02-11,1884.29752
1930-02-12,1904.13223
1930-02-13,1963.63636
1930-02-14,1963.63636
1930-02-15,2062.80992
1930-02-16,2280.99174
1930-02-17,2280.99174
1930-02-18,2400.0
1930-02-19,2499.17355
1930-02-20,2776.8595
1930-02-21,2776.8595
1930-02-22,2776.8595
1930-02-23,2776.8595
1930-02-24,2776.8595
1930-02-25,2776.8595
1930-02-26,2776.8595
1930-02-27,2776.8595
1930-02-28,1785.12397
1930-03-01,1551.07438
1930-03-02,1344.79339
1930-03-03,1376.52893
1930-03-04,1519.33884
1930-03-05,1584.79339
1930-03-06,1727.60331
1930-03-07,1765.28926
1930-03-08,1804.95868
1930-03-09,1785.12397
1930-03-10,1864.46281
1930-03-11,1824.79339
1930-03-12,1904.13223
1930-03-13,1963.63636
1930-03-14,2122.31405
1930-03-15,2082.64463
1930-03-16,2221.4876
1930-03-17,2677.68595
1930-03-18,2935.53719
1930-03-19,2499.17355
1930-03-20,2360.33058
1930-03-21,2320.66116
1930-03-22,2340.49587
1930-03-23,2380.16529
1930-03-24,2578.5124
1930-03-25,2776.8595
1930-03-26,2657.85124
1930-03-27,2578.5124
1930-03-28,2479.33884
1930-03-29,2380.16529